[ ตารางข้อมูล ] [ Min-Max ] [ วันนี้4 ] [ วันนี้2 ] [ เทียบ3วัน A ] [ เทียบ4วัน B ]   

วันนี้2   [ ◀ ช่วงเก่ากว่า ] [ ช่วงที่ 285 ] [ ช่วงใหม่กว่า ▶ ] [ ล่าสุด ]    [ 3 ชั่วโมง ] [ 6 ชั่วโมง ] [ 12 ชั่วโมง ] [ 24 ชั่วโมง ]   วันนี้2

อุณภูมิตู้ Knockdown4529  ราย 3 ชั่วโมง  ที่วัดได้ ในช่วงวันเวลา 02/04/2026 (11:44) ถึง 02/04/2026 (14:44) 
ความชื้นในตู้ Knockdown4529  ราย 3 ชั่วโมง  ที่วัดได้ ในช่วงวันเวลา 02/04/2026 (11:44) ถึง 02/04/2026 (14:44) 

 
DS18B20SHTC3 
IDDate d/m/Y & Timedata1
สูง
data2
ต่ำ
data3
นอก
temp
pcb
hum
pcb
Time
 8139  02/04/2026 14:43:50  32.7  31.7  32.4  32.1  68.3  14:43 
 8138  02/04/2026 14:39:07  32.7  31.7  32.4  32.1  68.1  14:39 
 8137  02/04/2026 14:34:25  32.8  31.7  32.4  32.1  68.2  14:34 
 8136  02/04/2026 14:29:43  32.8  31.7  32.3  32.2  68.0  14:29 
 8135  02/04/2026 14:25:01  32.8  31.6  32.2  32.1  67.9  14:25 
 8134  02/04/2026 14:20:19  32.8  31.6  32.4  32.3  67.8  14:20 
 8133  02/04/2026 14:15:35  32.8  31.6  32.5  32.1  67.7  14:15 
 8132  02/04/2026 14:10:53  32.8  31.6  32.5  32.1  67.7  14:10 
 8131  02/04/2026 14:06:12  32.8  31.6  32.5  32.1  67.7  14:06 
 8130  02/04/2026 14:01:30  32.8  31.6  32.2  32.3  67.8  14:01 
 8129  02/04/2026 13:56:48  32.8  31.6  32.5  32.2  67.7  13:56 
 8128  02/04/2026 13:52:05  32.8  31.6  32.3  32.2  67.5  13:52 
 8127  02/04/2026 13:47:23  32.8  31.6  32.4  32.2  67.5  13:47 
 8126  02/04/2026 13:42:41  32.8  31.6  32.6  32.3  67.6  13:42 
 8125  02/04/2026 13:37:59  32.8  31.5  32.2  32.1  67.3  13:37 
 8124  02/04/2026 13:33:17  32.8  31.5  32.4  32.2  67.6  13:33 
 8123  02/04/2026 13:28:35  32.8  31.5  32.6  32.1  67.6  13:28 
 8122  02/04/2026 13:23:51  32.8  31.4  32.7  32.2  67.6  13:23 
 8121  02/04/2026 13:19:09  32.8  31.4  32.9  32.1  67.5  13:19 
 8120  02/04/2026 13:14:27  32.8  31.4  32.7  32.0  67.5  13:14 
 8119  02/04/2026 13:09:44  32.8  31.4  32.8  32.1  67.4  13:09 
 8118  02/04/2026 13:05:02  32.7  31.3  33.0  32.1  67.5  13:05 
 8117  02/04/2026 13:00:20  32.7  31.3  33.0  31.9  67.4  13:00 
 8116  02/04/2026 12:55:37  32.7  31.3  32.7  32.0  67.5  12:55 

Data every 5 minute.


ใช้เวลาประมวลผล 0.00200 วินาที